This is the latest recevied weather packets stored in our database for station/object KI4NG. If no packets are shown the sender has not sent any weather packets the latest 10 day(s).
| Time | Temp. | Humidity | Pressure | Rain* | Wind** | Luminosity | Snow |
|---|---|---|---|---|---|---|---|
| 1788635535 | 32.78° C | 62% | 1016 hPa | 0 mm | - | 667 W/m² | - |
| 1788635234 | 33.33° C | 62% | 1016 hPa | 0 mm | - | 667 W/m² | - |
| 1788634933 | 32.78° C | 65% | 1016.1 hPa | 0 mm | - | 662 W/m² | - |
| 1788634632 | 33.33° C | 64% | 1015.9 hPa | 0 mm | - | 643 W/m² | - |
| 1788634327 | 33.33° C | 63% | 1015.9 hPa | 0 mm | - | 578 W/m² | - |
| 1788634021 | 32.78° C | 64% | 1016 hPa | 0 mm | - | 522 W/m² | - |
| 1788633720 | 32.22° C | 66% | 1016.2 hPa | 0 mm | - | 626 W/m² | - |
| 1788633420 | 32.22° C | 68% | 1016 hPa | 0 mm | - | 661 W/m² | - |
| 1788633115 | 32.22° C | 67% | 1016.5 hPa | 0 mm | - | 658 W/m² | - |
| 1788632815 | 31.67° C | 65% | 1016.5 hPa | 0 mm | - | 636 W/m² | - |
| 1788632514 | 32.22° C | 67% | 1016.6 hPa | 0 mm | - | 629 W/m² | - |
| 1788632210 | 31.67° C | 71% | 1016.6 hPa | 0 mm | - | 652 W/m² | - |
| 1788631909 | 30.56° C | 70% | 1016.8 hPa | 0 mm | - | 648 W/m² | - |
| 1788631603 | 31.11° C | 70% | 1017 hPa | 0 mm | - | 267 W/m² | - |
| 1788631299 | 32.22° C | 68% | 1016.7 hPa | 0 mm | - | 707 W/m² | - |
| 1788630998 | 31.11° C | 70% | 1016.7 hPa | 0 mm | - | 655 W/m² | - |
| 1788630694 | 31.67° C | 71% | 1016.9 hPa | 0 mm | - | 635 W/m² | - |
| 1788630390 | 31.11° C | 73% | 1016.9 hPa | 0 mm | - | 638 W/m² | - |
| 1788630085 | 30.56° C | 72% | 1016.9 hPa | 0 mm | - | 659 W/m² | - |
| 1788629781 | 31.11° C | 71% | 1017 hPa | 0 mm | - | 636 W/m² | - |
| 1788629476 | 30.56° C | 71% | 1016.9 hPa | 0 mm | - | 618 W/m² | - |
| 1788629175 | 30.56° C | 72% | 1016.8 hPa | 0 mm | - | 629 W/m² | - |
| 1788628870 | 30° C | 74% | 1016.9 hPa | 0 mm | - | 631 W/m² | - |
| 1788628567 | 30° C | 75% | 1016.9 hPa | 0 mm | - | 644 W/m² | - |
| 1788628262 | 30° C | 76% | 1017.1 hPa | 0 mm | - | 622 W/m² | - |
* Rain latest hour (hover to see other rain measurements)
** Current wind speed in m/s (hover to see current wind gust speed)